[[{"header":{"parameterUnit":"m.s-1","parameterCategory":1,"la1":30.2991,"la2":30.254,"lo1":-89.0895,"lo2":-89.0444,"dy":0.0017,"dx":0.0017,"nx":28,"ny":28,"refTime":"2024-05-01T21:00:00:Z","depth":0,"parameterNumber":2,"parameterNumberName":"U-component_of_WINDS"},"data":[0,0,0,0,0,0,0,0,0,0,0,0,0,0,0,0,0,0,0,0,0,0,0,0,0,0,0,0,0,0,0,0,0,0,0,0,0,0,0,0,0,0,0,0,0,0,0,0,0,0,0,0,0,0,0,0,0,0,-3.3276,-3.3276,0,-3.3273,-3.3273,-3.3273,-3.319,-3.3188,-3.3186,-3.3184,-3.3181,-3.3183,-3.3185,0,0,0,0,0,0,0,0,0,0,0,0,0,-3.3212,-3.3213,-3.3276,-3.3276,-3.3276,-3.3273,-3.3273,-3.3273,-3.3191,-3.3188,-3.3186,-3.3183,-3.3181,-3.3183,-3.3185,0,0,0,0,0,0,0,0,0,0,0,0,0,-3.3227,-3.3214,-3.3276,-3.3235,-3.3231,-3.3273,-3.3273,-3.3273,-3.3191,-3.3188,-3.3185,-3.3182,-3.318,-3.3183,-3.3186,-3.3268,0,0,-3.3194,-3.3196,0,0,0,0,0,0,0,0,-3.3227,-3.323,-3.3241,-3.3238,-3.3234,-3.3229,-3.3249,-3.3271,-3.3192,-3.3206,-3.3184,-3.318,-3.32,-3.3201,-3.3207,-3.3267,-3.3267,-3.3195,-3.3196,-3.3198,-3.3198,0,0,0,0,0,0,0,-3.3226,-3.323,-3.3275,-3.3241,-3.3237,-3.3217,-3.3215,-3.3253,-3.3221,-3.3205,-3.3199,-3.32,-3.3197,-3.3205,-3.3207,-3.3267,-3.3195,-3.3197,-3.3199,-3.32,-3.3394,-3.3398,0,0,0,0,0,0,-3.323,-3.3229,-3.3275,-3.3275,-3.3222,-3.322,-3.3219,-3.3234,-3.3221,-3.3215,-3.3202,-3.3196,-3.3201,-3.3203,-3.3206,-3.3301,-3.3198,-3.32,-3.3202,-3.3391,-3.3395,-3.3399,0,0,0,0,0,0,-3.3229,-3.3235,-3.3275,-3.3251,-3.3254,-3.3225,-3.3242,-3.3235,-3.3243,-3.3219,-3.3213,-3.3216,-3.3199,-3.3202,-3.3253,-3.33,-3.3202,-3.3204,-3.3387,-3.3392,-3.3397,-3.3491,0,0,0,0,0,0,-3.3228,-3.3235,-3.3266,-3.3252,-3.3256,-3.3322,-3.3245,-3.3238,-3.3248,-3.3239,-3.323,-3.3225,-3.3197,-3.3249,-3.3256,-3.3302,-3.3207,-3.3382,-3.3389,-3.3395,-3.3484,-3.3499,-3.3512,0,0,0,0,0,-3.3226,-3.3293,-3.3268,-3.3274,-3.3293,-3.3325,-3.3327,-3.3293,-3.3252,-3.3282,-3.3267,-3.3225,-3.3294,-3.3255,-3.3262,-3.3309,-3.3379,-3.3387,-3.3395,-3.3477,-3.3496,-3.3511,0,0,0,0,0,0,-3.3313,-3.329,-3.3262,-3.3327,-3.3328,-3.3311,-3.3348,-3.3314,-3.3327,-3.3319,-3.3276,-3.3275,-3.3332,-3.3326,-3.3283,-3.3388,-3.3329,-3.3339,-3.339,-3.3407,-3.3421,-3.3421,-3.3209,0,0,0,0,0,-3.334,-3.3367,-3.3346,-3.3404,-3.3407,-3.3378,-3.339,-3.3364,-3.3364,-3.3364,-3.3352,-3.3354,-3.3376,-3.3391,-3.341,-3.3483,-3.3479,-3.3519,-3.3533,-3.3545,-3.3553,-3.3591,-3.3608,-3.3424,-3.3424,-3.3424,0,0,-3.3395,-3.3386,-3.3406,-3.3422,-3.342,-3.3449,-3.3379,-3.3413,-3.3434,-3.3369,-3.3416,-3.3408,-3.3407,-3.3469,-3.3496,-3.3466,-3.3603,-3.3555,-3.3564,-3.3566,-3.36,-3.3618,-3.3633,-3.3429,-3.3428,-3.3428,0,0,-3.3511,-3.3507,-3.3555,-3.3555,-3.3553,-3.3534,-3.3546,-3.3534,-3.3525,-3.3572,-3.3524,-3.3549,-3.3588,-3.3589,-3.3595,-3.3712,-3.3674,-3.372,-3.3793,-3.383,-3.3845,-3.3857,-3.3898,-3.3914,-3.3728,-3.3729,-3.3729,0,-3.358,-3.3622,-3.3585,-3.3622,-3.363,-3.3573,-3.3622,-3.3624,-3.3629,-3.3636,-3.3602,-3.3649,-3.3645,-3.3706,-3.3735,-3.3742,-3.3754,-3.372,-3.3845,-3.3858,-3.3869,-3.3908,-3.3924,-3.3734,-3.3733,-3.3733,-3.3732,0,-3.3707,-3.3737,-3.3776,-3.3782,-3.3795,-3.3838,-3.3807,-3.3825,-3.3798,-3.3782,-3.3831,-3.3823,-3.384,-3.3853,-3.3827,-3.3911,-3.3892,-3.3853,-3.3793,-3.3893,-3.3928,-3.3943,-3.3742,-3.374,-3.3738,-3.3737,0,0,-3.3876,-3.3861,-3.3876,-3.3878,-3.3872,-3.3895,-3.3936,-3.3951,-3.3967,-3.3973,-3.4006,-3.404,-3.4004,-3.4011,-3.3985,-3.4018,-3.4111,-3.3974,-3.3973,-3.3999,-3.4202,-3.4231,-3.4249,-3.4086,-3.4089,-3.4091,-3.4202,0,-3.3987,-3.4055,-3.4023,-3.4095,-3.4122,-3.4069,-3.4104,-3.4105,-3.4092,-3.4113,-3.4098,-3.4123,-3.4073,-3.4077,-3.4108,-3.4093,-3.4151,-3.4085,-3.4116,-3.4117,-3.4116,-3.4268,-3.4298,-3.4403,-3.4216,-3.4218,-3.422,0,-3.4126,-3.4137,-3.4211,-3.4201,-3.4211,-3.4243,-3.4255,-3.4277,-3.4276,-3.4264,-3.4273,-3.4239,-3.4278,-3.422,-3.4273,-3.4229,-3.424,-3.4235,-3.4238,-3.4239,-3.4174,-3.4272,-3.4436,-3.4452,-3.4242,-3.424,-3.4238,0,-3.4241,-3.4275,-3.4323,-3.4327,-3.4316,-3.434,-3.4337,-3.4333,-3.4345,-3.4356,-3.4363,-3.4379,-3.4387,-3.44,-3.4372,-3.4332,-3.4429,-3.4368,-3.442,-3.4421,-3.4442,-3.4441,-3.4609,-3.4451,-3.4451,-3.445,-3.445,0,-3.4368,-3.4415,-3.4375,-3.4405,-3.4457,-3.442,-3.4472,-3.4463,-3.4461,-3.4488,-3.4444,-3.4471,-3.4432,-3.4455,-3.4433,-3.4481,-3.4485,-3.4476,-3.447,-3.448,-3.4481,-3.4486,-3.4477,-3.4455,-3.4454,-3.4453,-3.4452,0,-3.4505,-3.448,-3.4529,-3.4515,-3.4513,-3.4552,-3.4539,-3.4567,-3.4551,-3.4586,-3.4592,-3.4567,-3.4592,-3.4565,-3.4588,-3.4573,-3.4637,-3.4621,-3.4637,-3.4632,-3.4685,-3.468,-3.4862,-3.4884,-3.4712,-3.4714,-3.4716,0,-3.4587,-3.4622,-3.4612,-3.4627,-3.4626,-3.4651,-3.4663,-3.4628,-3.4642,-3.4645,-3.4672,-3.4693,-3.4708,-3.4751,-3.4735,-3.4752,-3.4735,-3.4797,-3.4737,-3.4746,-3.4735,-3.4733,-3.4736,-3.4809,-3.4811,-3.4813,-3.4814,0,-3.4735,-3.4721,-3.4739,-3.4754,-3.4769,-3.4779,-3.4785,-3.48,-3.4765,-3.4783,-3.4808,-3.4819,-3.4843,-3.4864,-3.4877,-3.4874,-3.4839,-3.4834,-3.4846,-3.4856,-3.4864,-3.486,-3.467,-3.4829,-3.4828,-3.4827,-3.4826,-3.4825,-3.4846,-3.4875,-3.4872,-3.4894,-3.4896,-3.4903,-3.4928,-3.4915,-3.4935,-3.4951,-3.493,-3.4961,-3.496,-3.4973,-3.4974,-3.4998,-3.4971,-3.499,-3.4995,-3.4999,-3.5007,-3.4862,-3.5,-3.5,-3.5,-3.4999,-3.4999,0,-3.4991,-3.4987,-3.5008,-3.5018,-3.5036,-3.5001,-3.5007,-3.5024,-3.5051,-3.5053,-3.5069,-3.5098,-3.5119,-3.5105,-3.5122,-3.5144,-3.5128,-3.515,-3.5147,-3.5147,-3.503,-3.5017,-3.5162,-3.5162,-3.5162,-3.5162,-3.5162,-3.5162,-3.5069,-3.5115,-3.5101,-3.5149,-3.5144,-3.5173,-3.518,-3.5186,-3.5187,-3.5221,-3.5239,-3.5229,-3.5225,-3.5242,-3.526,-3.5255,-3.5263,-3.5291,-3.528,-3.5171,-3.5155,-3.514,-3.5127,-3.5293,-3.5293,-3.5395,-3.5396,-3.5396]},{"header":{"parameterUnit":"m.s-1","parameterCategory":1,"la1":30.2991,"la2":30.254,"lo1":-89.0895,"lo2":-89.0444,"dy":0.0017,"dx":0.0017,"nx":28,"ny":28,"refTime":"2024-05-01T21:00:00:Z","depth":0,"parameterNumber":3,"parameterNumberName":"V-component_of_WINDS"},"data":[0,0,0,0,0,0,0,0,0,0,0,0,0,0,0,0,0,0,0,0,0,0,0,0,0,0,0,0,0,0,0,0,0,0,0,0,0,0,0,0,0,0,0,0,0,0,0,0,0,0,0,0,0,0,0,0,0,0,1.6615,1.6615,0,1.6622,1.6622,1.6622,1.6599,1.6599,1.6598,1.6597,1.6604,1.6605,1.6606,0,0,0,0,0,0,0,0,0,0,0,0,0,1.6582,1.6583,1.6615,1.6615,1.6615,1.6622,1.6622,1.6622,1.66,1.6599,1.6598,1.6597,1.6604,1.6605,1.6606,0,0,0,0,0,0,0,0,0,0,0,0,0,1.6593,1.6583,1.6615,1.6605,1.6604,1.6622,1.6622,1.6622,1.66,1.6599,1.6598,1.6597,1.6603,1.6605,1.6606,1.6634,0,0,1.6609,1.661,0,0,0,0,0,0,0,0,1.6593,1.6594,1.6606,1.6605,1.6604,1.6609,1.6613,1.6626,1.66,1.6601,1.6597,1.6596,1.6606,1.6607,1.6611,1.6634,1.6634,1.661,1.661,1.6611,1.6611,0,0,0,0,0,0,0,1.6592,1.6594,1.6618,1.6606,1.6605,1.66,1.66,1.6615,1.6609,1.6601,1.6599,1.6601,1.6606,1.661,1.6611,1.6634,1.661,1.6611,1.6611,1.6612,1.6681,1.6682,0,0,0,0,0,0,1.6592,1.6593,1.6617,1.6618,1.6596,1.6601,1.6602,1.6608,1.6609,1.6608,1.6602,1.66,1.6608,1.6609,1.6611,1.6644,1.6611,1.6612,1.6613,1.668,1.6682,1.6683,0,0,0,0,0,0,1.6592,1.6595,1.6617,1.6605,1.6608,1.6603,1.6611,1.6609,1.6613,1.661,1.6608,1.6607,1.6607,1.6609,1.6628,1.6644,1.6612,1.6614,1.6679,1.6681,1.6682,1.671,0,0,0,0,0,0,1.6591,1.6595,1.6605,1.6606,1.6608,1.6634,1.6611,1.661,1.6615,1.6613,1.6614,1.6613,1.6607,1.6627,1.663,1.6645,1.6615,1.6678,1.668,1.6682,1.6708,1.6713,1.6717,0,0,0,0,0,1.659,1.6612,1.6606,1.6609,1.6621,1.6635,1.6637,1.6629,1.6617,1.6627,1.6625,1.6613,1.6642,1.6629,1.6632,1.6648,1.6677,1.6679,1.6682,1.6706,1.6712,1.6717,0,0,0,0,0,0,1.6613,1.6612,1.6605,1.6628,1.6632,1.6632,1.6645,1.6635,1.6643,1.664,1.663,1.663,1.6652,1.6652,1.6637,1.6675,1.6657,1.666,1.6674,1.668,1.6684,1.6684,1.6616,0,0,0,0,0,1.6622,1.6633,1.6631,1.6652,1.6655,1.665,1.6655,1.6649,1.6652,1.6654,1.6653,1.6657,1.6667,1.6673,1.6682,1.6708,1.6708,1.672,1.6725,1.6729,1.6731,1.6746,1.6751,1.6691,1.6691,1.6691,0,0,1.6638,1.6639,1.6647,1.6657,1.6659,1.6672,1.6651,1.6665,1.6674,1.6656,1.6674,1.6674,1.6677,1.67,1.671,1.6701,1.6748,1.6732,1.6735,1.6736,1.6749,1.6755,1.676,1.6693,1.6693,1.6692,0,0,1.6675,1.6676,1.6694,1.6697,1.6701,1.6697,1.6702,1.6703,1.6702,1.672,1.6707,1.6718,1.6735,1.6738,1.6742,1.6781,1.677,1.6784,1.6807,1.6821,1.6826,1.683,1.6844,1.6849,1.6787,1.6787,1.6787,0,1.6695,1.6713,1.6704,1.6719,1.6724,1.6709,1.6728,1.6731,1.6737,1.6741,1.6731,1.6752,1.6753,1.6777,1.6787,1.679,1.6795,1.6784,1.6826,1.683,1.6833,1.6847,1.6852,1.6789,1.6788,1.6788,1.6788,0,1.6737,1.675,1.6764,1.6771,1.6778,1.6794,1.6789,1.6796,1.679,1.6788,1.6807,1.6808,1.6817,1.6822,1.6815,1.6845,1.6839,1.6827,1.6809,1.6841,1.6853,1.6858,1.6791,1.679,1.679,1.6789,0,0,1.6788,1.6791,1.6797,1.68,1.6804,1.6813,1.6829,1.6839,1.6846,1.6851,1.6864,1.6879,1.6869,1.6873,1.6867,1.6879,1.691,1.6866,1.6866,1.6874,1.6943,1.6952,1.6958,1.6903,1.6904,1.6905,1.6943,0,1.6825,1.6852,1.6846,1.6873,1.6885,1.6871,1.6885,1.6889,1.6887,1.6897,1.6895,1.6906,1.6891,1.6894,1.6906,1.6904,1.6924,1.6901,1.6916,1.6916,1.6915,1.6964,1.6974,1.7009,1.6948,1.6949,1.6949,0,1.687,1.6878,1.6907,1.6909,1.6914,1.6926,1.6935,1.6944,1.6948,1.6946,1.6952,1.6943,1.6959,1.6941,1.6963,1.6947,1.6953,1.6953,1.6954,1.6955,1.6935,1.6967,1.7021,1.7026,1.6957,1.6956,1.6955,0,1.6905,1.6923,1.6942,1.6945,1.6948,1.6958,1.6959,1.6962,1.6969,1.6976,1.698,1.6989,1.6994,1.7001,1.6995,1.6982,1.7018,1.6999,1.7017,1.7017,1.7025,1.7025,1.708,1.7028,1.7028,1.7028,1.7028,0,1.6947,1.6965,1.6958,1.697,1.699,1.6982,1.7002,1.7002,1.7005,1.7017,1.7006,1.7017,1.7009,1.7019,1.7015,1.7034,1.7036,1.7035,1.7034,1.7036,1.7037,1.704,1.7037,1.703,1.7029,1.7029,1.7029,0,1.6989,1.6985,1.7006,1.7007,1.7008,1.7023,1.7024,1.7035,1.7033,1.7048,1.7051,1.7048,1.706,1.7055,1.7067,1.7064,1.7089,1.7084,1.7088,1.7086,1.7105,1.7103,1.7165,1.7173,1.7116,1.7116,1.7117,0,1.7015,1.7029,1.7032,1.704,1.7042,1.7054,1.7061,1.7054,1.7061,1.7067,1.7078,1.7089,1.7097,1.7117,1.7116,1.7125,1.7121,1.7142,1.7122,1.7125,1.7122,1.7121,1.7122,1.7146,1.7146,1.7147,1.7147,0,1.7063,1.7061,1.7071,1.7081,1.7089,1.7096,1.7102,1.7108,1.7102,1.7111,1.7123,1.713,1.7143,1.7154,1.7163,1.7164,1.7155,1.7154,1.7158,1.7161,1.7163,1.7162,1.7098,1.7152,1.7152,1.7151,1.7151,1.7151,1.7099,1.7111,1.7115,1.7127,1.7131,1.7137,1.7148,1.7147,1.7157,1.7168,1.7163,1.7177,1.7182,1.7192,1.7195,1.7207,1.7198,1.7205,1.7207,1.7209,1.7211,1.7161,1.7208,1.7208,1.7208,1.7208,1.7208,0,1.7146,1.7149,1.716,1.7169,1.7178,1.7169,1.7175,1.7183,1.7196,1.7201,1.721,1.7225,1.7236,1.7235,1.7245,1.7255,1.7251,1.7258,1.7257,1.7257,1.7218,1.7213,1.7261,1.7261,1.7261,1.7261,1.7261,1.7261,1.7172,1.7192,1.719,1.7212,1.7214,1.7228,1.7233,1.7239,1.7242,1.7259,1.7269,1.7268,1.7271,1.7282,1.7292,1.7291,1.7296,1.7304,1.7302,1.7265,1.726,1.7255,1.725,1.7305,1.7305,1.7341,1.7341,1.7341]}]]